DW3695 Weather Reports


time (UTC)temp
C
wind
direction
speed
KPH
gust
KPH
rain 1hr
cm
rain 24hr
cm
rain mn
cm
humidity
%
barometer
mb
20260505192850 11 90 14.5 20.9 0.03 0.08 0.08 90 1007.8
20260505192627 12 84 8.0 20.9 0.03 0.08 0.08 90 1007.6
20260505191849 12 87 11.3 24.1 0.03 0.08 0.08 89 1007.6
20260505191628 12 67 14.5 24.1 0.03 0.08 0.08 89 1007.5
20260505190849 12 123 9.7 17.7 0.03 0.08 0.08 89 1007.5
20260505190349 12 54 9.7 19.3 0.03 0.08 0.08 89 1007.4
20260505185848 12 97 12.9 20.9 0.03 0.05 0.08 88 1007.4
20260505185349 12 74 11.3 24.1 0.03 0.05 0.08 88 1007.4
20260505184848 12 66 14.5 24.1 0.00 0.05 0.05 88 1007.4
20260505184623 12 121 14.5 24.1 0.00 0.05 0.05 87 1007.4
20260505184127 12 112 14.5 22.5 0.00 0.05 0.05 88 1007.5
20260505183348 12 80 12.9 22.5 0.00 0.05 0.05 88 1007.4
20260505182848 12 92 11.3 17.7 0.00 0.05 0.05 88 1007.4
20260505182348 12 84 6.4 11.3 0.00 0.05 0.05 88 1007.5
20260505181848 12 71 6.4 11.3 0.00 0.05 0.05 87 1007.4
20260505181348 12 61 4.8 16.1 0.00 0.05 0.05 87 1007.4
20260505180847 12 67 8.0 20.9 0.00 0.05 0.05 87 1007.3
20260505180347 12 99 12.9 20.9 0.00 0.05 0.05 87 1007.3
20260505175848 12 98 14.5 19.3 0.00 0.05 0.05 87 1007.2
20260505175347 12 87 14.5 19.3 0.00 0.05 0.05 87 1007.2
20260505175119 12 68 6.4 16.1 0.00 0.05 0.05 87 1007.2
20260505173846 13 75 11.3 19.3 0.00 0.05 0.05 87 1007.2
20260505173347 13 77 8.0 16.1 0.00 0.05 0.05 87 1007.3
20260505173120 13 97 8.0 22.5 0.00 0.05 0.05 86 1007.3
20260505172623 13 111 12.9 25.7 0.00 0.05 0.05 86 1007.2
20260505171345 13 81 16.1 25.7 0.00 0.05 0.05 86 1007.2
20260505170845 13 102 17.7 27.4 0.00 0.05 0.05 86 1007.2
20260505170345 13 77 17.7 27.4 0.00 0.05 0.05 85 1007.0
20260505165846 13 92 16.1 25.7 0.00 0.05 0.05 85 1007.1
20260505165345 14 44 17.7 24.1 0.00 0.05 0.05 84 1007.1
20260505164844 14 84 12.9 20.9 0.00 0.05 0.05 82 1007.2
20260505164623 15 95 14.5 22.5 0.00 0.05 0.05 82 1007.1
20260505163845 15 63 11.3 25.7 0.03 0.05 0.05 84 1007.2
20260505163347 14 64 14.5 25.7 0.03 0.05 0.05 84 1007.3
20260505162844 15 70 17.7 25.7 0.03 0.05 0.05 84 1007.5
20260505162344 15 49 16.1 29.0 0.03 0.05 0.05 84 1007.3
20260505161844 14 57 19.3 29.0 0.03 0.05 0.05 85 1007.3
20260505161400 14 125 14.5 20.9 0.03 0.05 0.05 88 1007.3
20260505160844 13 28 6.4 24.1 0.03 0.05 0.05 90 1007.3
20260505160343 12 57 12.9 24.1 0.03 0.05 0.05 90 1007.1
20260505153343 12 50 16.1 24.1 0.00 0.05 0.05 91 1006.9
20260505152843 12 40 12.9 22.5 0.00 0.05 0.05 91 1006.7
20260505152343 13 32 14.5 22.5 0.00 0.05 0.05 90 1006.6
20260505151842 13 40 12.9 19.3 0.00 0.05 0.05 90 1006.6
20260505151343 13 81 3.2 16.1 0.00 0.05 0.05 90 1007.1
20260505150843 13 67 8.0 16.1 0.00 0.05 0.05 88 1007.3
20260505150343 13 114 11.3 20.9 0.00 0.05 0.05 87 1007.1
20260505140341 15 328 6.4 16.1 0.03 0.05 0.05 87 1006.7
20260505130137 15 236 12.9 25.7 0.00 0.05 0.03 77 1006.8
20260505124839 15 250 8.0 17.7 0.00 0.05 0.03 76 1006.8
20260505124614 15 225 14.5 17.7 0.00 0.05 0.03 78 1006.7
20260505123839 15 256 12.9 19.3 0.00 0.05 0.03 77 1006.7
20260505123338 15 226 14.5 19.3 0.00 0.05 0.03 77 1006.7
20260505122838 15 233 12.9 19.3 0.00 0.05 0.03 77 1006.7
20260505122338 15 204 6.4 14.5 0.00 0.05 0.03 77 1006.7
20260505121838 15 221 8.0 17.7 0.00 0.05 0.03 77 1006.7
20260505121337 15 222 11.3 20.9 0.00 0.05 0.03 78 1006.7
20260505120838 15 225 12.9 22.5 0.00 0.05 0.03 79 1006.6
20260505120337 16 235 17.7 22.5 0.00 0.05 0.03 80 1006.6
20260505115837 16 209 14.5 24.1 0.00 0.05 0.03 79 1006.7
20260505115338 16 246 16.1 24.1 0.00 0.05 0.03 78 1006.6
20260505114837 16 248 14.5 24.1 0.00 0.05 0.03 75 1006.6
20260505114337 16 208 11.3 22.5 0.00 0.05 0.03 75 1006.6
20260505113837 16 212 14.5 22.5 0.00 0.05 0.03 74 1006.6
20260505113336 16 248 9.7 20.9 0.00 0.05 0.03 74 1006.6
20260505112836 16 221 12.9 20.9 0.00 0.05 0.03 73 1006.6
20260505112335 16 219 9.7 20.9 0.00 0.05 0.03 72 1006.6
20260505111835 17 236 12.9 19.3 0.00 0.05 0.03 71 1006.6
20260505111336 17 233 14.5 17.7 0.00 0.05 0.03 71 1006.6
20260505110835 17 205 11.3 17.7 0.00 0.05 0.03 71 1006.6
20260505110335 17 236 8.0 16.1 0.00 0.05 0.03 71 1006.5
20260505101835 15 226 11.3 17.7 0.00 0.05 0.03 80 1006.8
20260505101335 15 157 6.4 17.7 0.00 0.05 0.03 81 1006.8
20260505101108 15 225 6.4 11.3 0.00 0.05 0.03 80 1006.7
20260505100334 14 208 4.8 14.5 0.00 0.05 0.03 82 1006.7
20260505095834 14 201 9.7 14.5 0.00 0.05 0.03 82 1006.8
20260505095335 13 195 4.8 11.3 0.00 0.05 0.03 83 1006.8
20260505094834 13 209 3.2 11.3 0.00 0.05 0.03 85 1006.9
20260505094334 13 154 8.0 14.5 0.00 0.05 0.03 84 1006.9
20260505093834 13 177 6.4 14.5 0.00 0.05 0.03 84 1006.8
20260505093334 13 218 4.8 9.7 0.00 0.05 0.03 85 1006.8
20260505093109 13 185 6.4 9.7 0.00 0.05 0.03 85 1006.9
20260505092334 13 154 1.6 3.2 0.00 0.05 0.03 84 1006.8
20260505091834 13 67 0.0 1.6 0.00 0.05 0.03 84 1006.8
20260505091610 13 67 0.0 0.0 0.00 0.05 0.03 86 1006.8
20260505090333 13 67 0.0 6.4 0.00 0.05 0.03 87 1006.7
20260505085832 12 67 6.4 6.4 0.00 0.05 0.03 88 1006.9
20260505085603 12 83 0.0 8.0 0.00 0.05 0.03 88 1006.7
20260505084830 12 85 4.8 8.0 0.00 0.05 0.03 87 1006.9
20260505084601 12 84 4.8 6.4 0.00 0.05 0.03 89 1006.9
20260505083831 12 101 0.0 6.4 0.00 0.05 0.03 89 1006.8
20260505083332 12 61 4.8 6.4 0.00 0.05 0.03 90 1006.9
20260505082831 12 32 3.2 6.4 0.00 0.05 0.03 91 1006.8
20260505082605 12 60 3.2 8.0 0.00 0.05 0.03 91 1006.8
20260505081831 12 54 3.2 8.0 0.00 0.05 0.03 91 1006.9
20260505081331 12 29 4.8 6.4 0.00 0.05 0.03 91 1007.0
20260505080832 12 53 1.6 4.8 0.00 0.05 0.03 92 1007.0
20260505080331 12 25 1.6 4.8 0.00 0.05 0.03 92 1007.0
20260505075831 12 28 0.0 3.2 0.00 0.05 0.03 93 1007.2
20260505075330 12 197 0.0 0.0 0.00 0.05 0.03 93 1007.2
20260505074830 11 191 0.0 0.0 0.00 0.05 0.03 93 1007.2
20260505074330 11 198 0.0 0.0 0.00 0.05 0.03 93 1007.3
20260505073845 11 194 0.0 0.0 0.00 0.05 0.03 93 1007.4
20260505073330 11 193 0.0 0.0 0.00 0.05 0.03 93 1007.5
20260505072830 11 193 0.0 0.0 0.00 0.05 0.03 93 1007.6
20260505072329 11 195 0.0 0.0 0.00 0.05 0.03 93 1007.8
20260505071829 11 198 0.0 0.0 0.00 0.05 0.03 93 1007.9
20260505071329 11 198 0.0 0.0 0.00 0.05 0.03 93 1008.0
20260505070829 11 200 0.0 0.0 0.00 0.05 0.03 93 1008.0
20260505065829 10 204 0.0 0.0 0.00 0.05 0.03 93 1008.2
20260505065329 10 202 0.0 0.0 0.00 0.05 0.03 94 1008.1
20260505064828 10 202 0.0 0.0 0.00 0.05 0.03 94 1008.1
20260505064603 10 202 0.0 0.0 0.00 0.05 0.03 93 1008.2
20260505063828 10 184 0.0 0.0 0.00 0.05 0.03 93 1008.4
20260505063329 10 183 0.0 0.0 0.03 0.05 0.03 93 1008.4
20260505062328 10 181 0.0 3.2 0.03 0.05 0.03 94 1008.3
20260505062057 10 149 0.0 6.4 0.03 0.05 0.03 93 1008.4
20260505061328 10 149 1.6 6.4 0.03 0.05 0.03 93 1008.4
20260505061101 10 167 4.8 6.4 0.03 0.05 0.03 93 1008.5
20260505060327 10 166 3.2 4.8 0.03 0.05 0.03 93 1008.4
20260505055827 10 166 3.2 4.8 0.03 0.03 0.03 93 1008.5
20260505055557 10 163 3.2 4.8 0.03 0.03 0.03 93 1008.5
20260505054827 10 171 1.6 4.8 0.03 0.03 0.03 93 1008.6
20260505054602 10 176 0.0 0.0 0.03 0.03 0.03 93 1008.5
20260505053827 10 174 0.0 0.0 0.03 0.03 0.03 93 1008.5
20260505053326 10 174 0.0 3.2 0.00 0.03 0.00 93 1008.5
20260505052826 10 174 0.0 4.8 0.00 0.03 0.00 93 1008.4
20260505052327 10 174 0.0 6.4 0.00 0.03 0.00 93 1008.4
20260505051838 10 171 4.8 6.4 0.00 0.03 0.00 93 1008.4
20260505051327 10 138 0.0 6.4 0.00 0.03 0.00 93 1008.4
20260505050826 10 139 3.2 6.4 0.00 0.03 0.00 92 1008.4
20260505050325 10 173 6.4 6.4 0.00 0.03 0.00 92 1008.4
20260505040824 10 202 0.0 4.8 0.00 0.03 0.00 92 1008.2
20260505040324 10 198 3.2 4.8 0.00 0.03 0.00 92 1008.3
20260505040122 10 185 1.6 4.8 0.00 0.03 0.00 92 1008.4
20260505035324 10 198 1.6 4.8 0.00 0.03 0.00 92 1008.3
20260505034824 10 193 3.2 6.4 0.00 0.03 0.00 92 1008.4
20260505034555 10 197 4.8 6.4 0.00 0.03 0.00 92 1008.4
20260505033823 10 197 3.2 6.4 0.00 0.03 0.00 92 1008.4
20260505033323 10 197 6.4 6.4 0.00 0.03 0.00 92 1008.6
20260505032823 10 197 4.8 8.0 0.00 0.03 0.00 92 1008.4
20260505032323 10 176 6.4 8.0 0.00 0.03 0.00 92 1008.5
20260505031823 10 167 6.4 8.0 0.00 0.03 0.00 92 1008.5
20260505031557 10 166 6.4 8.0 0.00 0.03 0.00 92 1008.4
20260505031057 10 163 4.8 6.4 0.00 0.03 0.00 92 1008.4
20260505030322 10 139 4.8 6.4 0.00 0.03 0.00 92 1008.3
20260505025822 10 222 4.8 4.8 0.00 0.03 0.00 92 1008.4
20260505025322 10 226 3.2 6.4 0.00 0.03 0.00 92 1008.4
20260505025052 10 222 3.2 6.4 0.00 0.03 0.00 92 1008.4
20260505024322 10 224 3.2 8.0 0.00 0.03 0.00 92 1008.5
20260505023822 10 226 6.4 8.0 0.00 0.03 0.00 93 1008.5
20260505023321 10 226 3.2 6.4 0.00 0.03 0.00 93 1008.5
20260505023054 10 225 3.2 6.4 0.00 0.03 0.00 93 1008.7
20260505022321 10 226 0.0 6.4 0.00 0.03 0.00 93 1008.6
20260505021822 10 216 4.8 6.4 0.00 0.03 0.00 93 1008.7
20260505021321 10 169 3.2 4.8 0.00 0.03 0.00 93 1008.7
20260505020821 10 178 3.2 4.8 0.00 0.03 0.00 93 1008.8
20260505020321 10 177 3.2 6.4 0.00 0.03 0.00 93 1008.6
20260505015821 10 133 4.8 6.4 0.00 0.03 0.00 93 1008.8
20260505015321 10 147 1.6 3.2 0.00 0.03 0.00 93 1008.8
20260505014820 10 147 1.6 3.2 0.00 0.03 0.00 93 1008.9
20260505014320 10 140 0.0 1.6 0.00 0.03 0.00 93 1008.8
20260505014054 10 140 0.0 3.2 0.00 0.03 0.00 93 1008.8
20260505013321 10 149 1.6 3.2 0.00 0.03 0.00 93 1008.9
20260505013054 10 156 1.6 4.8 0.00 0.03 0.00 93 1008.9
20260505012319 10 145 3.2 6.4 0.00 0.03 0.00 93 1008.8
20260505012049 10 119 4.8 6.4 0.00 0.03 0.00 93 1008.8
20260505011320 10 101 1.6 4.8 0.00 0.03 0.00 93 1008.9
20260505010819 10 170 0.0 3.2 0.00 0.03 0.00 93 1008.9
20260505010550 10 164 0.0 3.2 0.00 0.03 0.00 93 1008.9
20260505010128 10 170 1.6 3.2 0.00 0.03 0.00 93 1009.0
20260505005319 10 169 0.0 1.6 0.00 0.03 0.00 93 1009.1
20260505004819 10 170 0.0 1.6 0.00 0.03 0.00 93 1009.3
20260505004318 10 173 0.0 0.0 0.00 0.03 0.00 93 1009.2
20260505003819 10 171 0.0 0.0 0.00 0.03 0.00 93 1009.3
20260505003319 10 171 0.0 0.0 0.00 0.03 0.00 93 1009.4
20260505002819 10 169 0.0 0.0 0.00 0.03 0.00 93 1009.4
20260505002319 10 170 0.0 0.0 0.00 0.03 0.00 93 1009.5
20260505001819 10 167 0.0 1.6 0.00 0.03 0.00 93 1009.7
20260505001318 10 171 0.0 3.2 0.00 0.03 0.00 93 1009.8
20260505000818 10 163 0.0 3.2 0.00 0.03 0.00 93 1009.9
20260505000317 10 170 1.6 3.2 0.00 0.03 0.00 93 1009.9
20260504235818 10 178 0.0 3.2 0.00 0.03 0.00 92 1009.9
20260504235317 10 310 1.6 4.8 0.00 0.03 0.00 92 1010.0
20260504235053 10 170 3.2 4.8 0.00 0.03 0.00 92 1010.2
20260504234556 10 178 1.6 3.2 0.00 0.03 0.00 92 1010.1
20260504233817 10 183 0.0 3.2 0.00 0.03 0.00 92 1010.1
20260504233313 10 169 1.6 6.4 0.00 0.03 0.00 92 1010.2
20260504232813 10 173 3.2 8.0 0.00 0.03 0.00 92 1010.2
20260504232316 10 181 6.4 8.0 0.00 0.03 0.00 92 1010.4
20260504231811 10 128 4.8 8.0 0.00 0.03 0.00 92 1010.4
20260504231312 10 162 0.0 4.8 0.00 0.03 0.00 92 1010.3
20260504230811 10 149 3.2 6.4 0.00 0.03 0.00 92 1010.4
20260504230309 10 159 4.8 6.4 0.00 0.03 0.00 91 1010.5
20260504225808 10 147 1.6 6.4 0.00 0.03 0.00 91 1010.5
20260504225306 10 149 4.8 6.4 0.00 0.03 0.00 91 1010.6
20260504224805 10 157 4.8 6.4 0.00 0.03 0.00 91 1010.6
20260504223804 11 157 0.0 4.8 0.00 0.03 0.00 91 1010.5
20260504223304 11 159 3.2 4.8 0.00 0.03 0.00 91 1010.6
20260504222803 11 160 1.6 4.8 0.00 0.03 0.00 91 1010.7
20260504222305 11 156 3.2 4.8 0.00 0.03 0.00 91 1010.7
20260504221805 11 156 0.0 3.2 0.00 0.03 0.00 90 1010.7
20260504221303 11 160 3.2 3.2 0.00 0.03 0.00 90 1010.7
20260504220802 11 126 0.0 0.0 0.00 0.03 0.00 90 1010.6
20260504220303 11 123 0.0 0.0 0.00 0.03 0.00 90 1010.6
20260504215801 11 128 0.0 0.0 0.00 0.03 0.03 90 1010.6
20260504215304 11 125 0.0 0.0 0.00 0.03 0.03 89 1010.6
20260504214801 11 123 0.0 0.0 0.00 0.03 0.03 89 1010.8
20260504214304 11 123 0.0 3.2 0.00 0.03 0.03 89 1010.9
20260504213802 11 123 1.6 6.4 0.00 0.03 0.03 89 1010.8
20260504213301 11 126 4.8 6.4 0.00 0.03 0.03 89 1010.8
20260504212802 11 129 4.8 6.4 0.00 0.03 0.03 89 1010.8
20260504212303 12 122 3.2 6.4 0.00 0.03 0.03 88 1010.9
20260504211802 12 167 0.0 3.2 0.00 0.03 0.03 88 1010.8
20260504211303 12 169 3.2 3.2 0.00 0.03 0.03 88 1010.8
20260504211058 12 176 1.6 4.8 0.00 0.03 0.03 88 1011.0
20260504210302 12 178 3.2 6.4 0.00 0.03 0.03 88 1011.0
20260504205802 12 183 3.2 8.0 0.00 0.03 0.03 88 1011.0
20260504205304 12 154 4.8 9.7 0.00 0.03 0.03 88 1011.0
20260504204802 12 185 8.0 9.7 0.00 0.03 0.03 87 1011.0
20260504204303 12 164 8.0 8.0 0.00 0.03 0.03 87 1011.2
20260504203802 12 150 6.4 8.0 0.00 0.03 0.03 87 1011.2
20260504203302 13 150 6.4 8.0 0.00 0.03 0.03 87 1011.2
20260504202802 13 202 4.8 8.0 0.00 0.03 0.03 87 1011.2
20260504202535 13 166 4.8 6.4 0.00 0.03 0.03 87 1011.3
20260504201802 13 157 3.2 4.8 0.00 0.03 0.03 87 1011.4
20260504201303 13 166 1.6 6.4 0.00 0.03 0.03 87 1011.4
20260504200802 13 156 3.2 6.4 0.00 0.03 0.03 87 1011.3
20260504200303 13 154 4.8 6.4 0.00 0.03 0.03 87 1011.3
20260504195802 13 166 4.8 6.4 0.00 0.03 0.03 87 1011.2
20260504195301 13 164 3.2 6.4 0.00 0.03 0.03 86 1011.2
20260504194802 13 169 4.8 6.4 0.00 0.03 0.03 86 1011.2
20260504194256 13 162 4.8 6.4 0.00 0.03 0.03 86 1011.2
20260504194032 13 176 4.8 8.0 0.00 0.03 0.03 86 1011.2